This demonstration page uses our WeatherBlox Daily Observations layout. Learn more.

40.92945, -100.16068

Hourly Observations for April 3, 2017

Temp ( °F °C ) Dew Point ( °F °C ) Humidity (%) Winds ( mph kmh ) Pressure ( in mb ) Visibility ( mi km ) Precip ( " mm )
12:15 am 00:15 Clear 45 7.2 43 5.9 92 92 SSE 5 7 29.71 1006 10 16.0934 0 0
12:35 am 00:35 Clear 45 7.2 43 6 92 92 Calm 29.71 1006 10 16.0934 0 0
12:55 am 00:55 Clear with Mist and Fog 43 6 41 4.8 92 92 Calm 29.74 1007 3 4.82802 0 0
1:15 am 01:15 Clear with Mist and Fog 42 5.3 40 4.3 93 93 Calm 29.74 1007 2 3.21868 0 0
1:35 am 01:35 Mostly Cloudy with Fog 39 4.1 38 3.2 94 94 Calm 29.71 1006 0.5 0.80467 0 0
1:55 am 01:55 Partly Cloudy with Fog 38 3.5 37 2.7 95 95 ESE 5 7 29.74 1007 0.5 0.80467 0 0
2:15 am 02:15 Partly Cloudy with Mist and Fog 38 3.6 37 2.8 95 95 Calm 29.71 1006 1.25 2.011675 0 0
2:35 am 02:35 Cloudy with Mist and Fog 37 2.5 35 1.9 96 96 Calm 29.74 1007 1 1.60934 0 0
2:55 am 02:55 Cloudy with Fog 38 3.1 37 2.5 96 96 NNW 6 9 29.74 1007 0.5 0.80467 0 0
3:15 am 03:15 Cloudy with Fog 39 3.7 37 3 95 95 NNW 7 11 29.71 1006 0.5 0.80467 0 0
3:35 am 03:35 Cloudy with Fog 37 3 36 2.3 95 95 N 6 9 29.74 1007 0.5 0.80467 0 0
3:55 am 03:55 Cloudy with Mist and Fog 37 2.6 35 1.9 95 95 Calm 29.74 1007 0.75 1.207005 0 0
4:15 am 04:15 Cloudy with Fog 37 2.6 36 2 96 96 Calm 29.74 1007 0.25 0.402335 0 0
4:35 am 04:35 Cloudy with Fog 38 3.1 37 2.5 96 96 Calm 29.74 1007 0.25 0.402335 0 0
4:55 am 04:55 Cloudy with Fog 37 3 36 2.3 95 95 Calm 29.74 1007 0.25 0.402335 0 0
5:15 am 05:15 Cloudy with Fog 37 2.6 36 2 96 96 Calm 29.71 1006 0.25 0.402335 0 0
5:35 am 05:35 Cloudy with Fog 37 2.7 36 2.1 96 96 Calm 29.74 1007 0.25 0.402335 0 0
5:55 am 05:55 Cloudy with Fog 38 3.4 37 2.7 95 95 W 3 6 29.74 1007 0.25 0.402335 0 0
6:15 am 06:15 Cloudy with Fog 38 3.5 37 2.7 95 95 W 5 7 29.74 1007 0.25 0.402335 0 0
6:35 am 06:35 Mostly Cloudy with Mist and Fog 37 3 37 2.5 97 97 WNW 5 7 29.74 1007 1.25 2.011675 0 0
6:55 am 06:55 Clear 38 3.1 37 2.5 96 96 WNW 6 9 29.74 1007 7 11.26538 0 0
7:15 am 07:15 Clear 38 3.5 37 2.8 95 95 WNW 7 11 29.74 1007 10 16.0934 0 0
7:35 am 07:35 Sunny 39 4 38 3.2 95 95 NW 7 11 29.71 1006 10 16.0934 0 0
7:55 am 07:55 Sunny 39 4 38 3.4 96 96 NW 5 7 29.71 1006 10 16.0934 0 0
8:15 am 08:15 Sunny 40 4.7 39 4 95 95 WNW 5 7 29.71 1006 10 16.0934 0 0
8:35 am 08:35 Partly Cloudy 42 5.5 40 4.7 95 95 W 6 9 29.71 1006 10 16.0934 0 0
8:55 am 08:55 Cloudy 42 5.8 41 5.1 95 95 WNW 6 9 29.71 1006 10 16.0934 0 0
9:15 am 09:15 Cloudy 43 6.1 42 5.5 96 96 WNW 8 13 29.71 1006 10 16.0934 0 0
9:35 am 09:35 Cloudy 44 6.5 42 5.8 95 95 WNW 8 13 29.74 1007 10 16.0934 0 0
9:55 am 09:55 Cloudy with Rain 45 7 43 6.1 94 94 WNW 6 9 29.68 1005 7 11.26538 0 0
10:15 am 10:15 Cloudy with Light Rain 45 7 43 6.1 94 94 W 3 6 29.68 1005 10 16.0934 0.01 0.254
10:35 am 10:35 Mostly Cloudy 46 7.5 44 6.7 95 95 NNW 3 6 29.68 1005 10 16.0934 0.01 0.254
10:55 am 10:55 Partly Cloudy 46 8 45 7 93 93 N 5 7 29.68 1005 10 16.0934 0.01 0.254
11:15 am 11:15 Mostly Cloudy with Light Rain 47 8.5 46 7.5 94 94 N 5 7 29.68 1005 10 16.0934 0 0
11:35 am 11:35 Mostly Cloudy 48 9.1 47 8.1 94 94 NW 13 20 29.68 1005 10 16.0934 0 0
11:55 am 11:55 Cloudy 48 8.9 46 7.8 93 93 WNW 12 19 29.68 1005 10 16.0934 0 0
12:15 pm 12:15 Cloudy 49 9.3 47 8.2 93 93 NNW 8 13 29.68 1005 10 16.0934 0 0
12:35 pm 12:35 Cloudy 49 9.7 47 8.5 92 92 NW 9 15 29.68 1005 10 16.0934 0 0
12:55 pm 12:55 Cloudy 50 10.2 47 8.4 89 89 NW 12 19 29.65 1004 10 16.0934 0 0
1:15 pm 13:15 Cloudy 52 11.3 47 8.3 82 82 NW 13 20 29.65 1004 10 16.0934 0 0
1:35 pm 13:35 Cloudy 53 11.4 46 7.9 79 79 NNW 14 22 29.65 1004 10 16.0934 0 0
1:55 pm 13:55 Cloudy 53 11.5 46 7.9 79 79 NW 16 26 29.65 1004 10 16.0934 0 0
2:15 pm 14:15 Cloudy 51 10.8 46 7.5 80 80 NW 15 24 29.68 1005 10 16.0934 0 0
2:35 pm 14:35 Cloudy 52 11.3 46 7.7 79 79 NNW 16 26 29.65 1004 10 16.0934 0 0
2:55 pm 14:55 Cloudy 51 10.6 45 7 79 79 NNW 16 26 29.68 1005 10 16.0934 0 0
3:15 pm 15:15 Cloudy 50 10 44 6.6 80 80 NW 18 30 29.71 1006 10 16.0934 0 0
3:35 pm 15:35 Cloudy 49 9.4 44 6.4 82 82 NW 20 31 29.71 1006 10 16.0934 0 0
3:55 pm 15:55 Cloudy 48 9.1 43 6 81 81 NW 18 30 29.71 1006 10 16.0934 0 0
4:15 pm 16:15 Cloudy 48 9.1 43 5.9 81 81 NNW 20 31 29.71 1006 10 16.0934 0 0
4:35 pm 16:35 Cloudy 48 8.7 42 5.5 81 81 NNW 21 33 29.71 1006 10 16.0934 0 0
4:55 pm 16:55 Cloudy 48 8.7 41 4.9 77 77 NNW 17 28 29.71 1006 10 16.0934 0 0
5:15 pm 17:15 Cloudy 49 9.2 40 4.7 74 74 NNW 21 33 29.71 1006 10 16.0934 0 0
5:35 pm 17:35 Cloudy 47 8.5 40 4.5 76 76 NNW 18 30 29.71 1006 10 16.0934 0 0
5:55 pm 17:55 Cloudy 47 8.5 40 4.2 75 75 NNW 18 30 29.71 1006 10 16.0934 0 0
6:15 pm 18:15 Cloudy 47 8.2 39 3.9 75 75 NNW 18 30 29.74 1007 10 16.0934 0 0
6:35 pm 18:35 Cloudy 47 8.3 39 3.8 74 74 NNW 18 30 29.74 1007 10 16.0934 0 0
6:55 pm 18:55 Cloudy 46 8 38 3.2 72 72 N 17 28 29.74 1007 10 16.0934 0 0
7:15 pm 19:15 Cloudy 46 7.6 38 3.2 74 74 NNW 20 31 29.77 1008 10 16.0934 0 0
7:35 pm 19:35 Cloudy 45 7.4 38 3.1 74 74 NNW 21 33 29.8 1009 10 16.0934 0 0
7:55 pm 19:55 Cloudy 45 7.2 37 2.7 73 73 NNW 18 30 29.8 1009 10 16.0934 0 0
8:15 pm 20:15 Cloudy 45 7 37 2.5 73 73 N 17 28 29.8 1009 10 16.0934 0 0
8:35 pm 20:35 Cloudy 44 6.8 37 2.7 75 75 N 13 20 29.8 1009 10 16.0934 0 0
8:55 pm 20:55 Cloudy 44 6.7 37 3 78 78 NNW 8 13 29.8 1009 10 16.0934 0 0
9:15 pm 21:15 Mostly Cloudy 43 6.3 37 2.8 79 79 N 10 17 29.83 1010 10 16.0934 0 0
9:35 pm 21:35 Mostly Cloudy 42 5.8 37 2.5 80 80 N 9 15 29.83 1010 10 16.0934 0 0
9:55 pm 21:55 Clear 40 4.6 35 1.9 83 83 NNW 7 11 29.85 1011 10 16.0934 0 0
10:15 pm 22:15 Clear 38 3.4 34 1.2 86 86 NW 7 11 29.88 1012 10 16.0934 0 0
10:35 pm 22:35 Clear 38 3.2 34 1 86 86 NW 7 11 29.88 1012 10 16.0934 0 0
10:55 pm 22:55 Clear 37 2.6 33 0.7 87 87 NNW 8 13 29.88 1012 10 16.0934 0 0
11:15 pm 23:15 Clear 36 2.4 33 0.5 87 87 NNW 7 11 29.88 1012 10 16.0934 0 0
11:35 pm 23:35 Clear 35 1.8 33 0.3 90 90 NW 7 11 29.91 1013 10 16.0934 0 0
11:55 pm 23:55 Clear 34 1.2 32 0 92 92 WNW 6 9 29.91 1013 10 16.0934 0 0

Powered by AerisWeather